Edwards AFB North Base, CA

3:27 AM PST on November 20, 2019 (GMT -0800)
Edwards AFB North Base

Weather History for K9L2 - September, 2019

Change the Weather History Date:

Saturday, September 7, 2019

  Actual Average (WUND) Record (WUND)
Temperature  
Mean Temperature 83 °F -  
Max Temperature 97 °F - - (-1)
Min Temperature 69 °F - - (-1)
Cooling Degree Days 18    
Growing Degree Days 33 (Base 50)    
Moisture  
Dew Point 44 °F    
Average Humidity 27    
Maximum Humidity 51    
Minimum Humidity 10    
Precipitation  
Precipitation 0.00 in - - ()
Sea Level Pressure  
Sea Level Pressure 29.86 in    
Wind  
Wind Speed 9 mph ()    
Max Wind Speed 22 mph    
Max Gust Speed 29 mph    
Visibility 8.8 miles    
Events      
Averages and records for this station are not official NWS values.
T = Trace of Precipitation, MM = Missing Value Source: Averaged Metar Reports

Daily Weather History Graph

Daily Weather History Graph

Search for Another Location

Airport or City:

Astronomy

Sep. 07, 2019 Rise Set
Actual Time 6:28 AM PDT 7:09 PM PDT
Civil Twilight 6:02 AM PDT 7:35 PM PDT
Nautical Twilight 5:32 AM PDT 8:05 PM PDT
Astronomical Twilight 5:01 AM PDT 8:36 PM PDT
Moon 3:19 PM PDT (9/7) 12:34 AM PDT (9/7)
Length of Visible Light 13h 32m
Length of Day
12h 41m
Waxing Gibbous, 67% of the Moon is Illuminated
Sep 7
Waxing Gibbous
Sep 13
Full
Sep 21
Last Quarter
Sep 28
New
Oct 5
First Quarter

Hourly Weather History & Observations

Time (PDT) Temp. Dew Point Humidity Pressure Visibility Wind Dir Wind Speed Gust Speed Precip Events Conditions
12:58 AM 75.9 °F 50.0 °F 40% 29.94 in 10.0 mi SSW 4.6 mph - N/A   Clear
1:58 AM 74.1 °F 49.3 °F 41% 29.94 in 10.0 mi South 9.2 mph - N/A   Clear
2:58 AM 74.1 °F 49.8 °F 42% 29.93 in 10.0 mi SSW 4.6 mph - N/A   Clear
3:58 AM 70.2 °F 49.3 °F 47% 29.92 in 10.0 mi SSE 11.5 mph - N/A   Clear
4:58 AM 70.2 °F 49.5 °F 48% 29.91 in 10.0 mi South 9.2 mph - N/A   Clear
5:58 AM 69.3 °F 49.3 °F 49% 29.92 in 10.0 mi South 5.8 mph - N/A   Clear
6:58 AM 69.3 °F 50.2 °F 51% 29.94 in 10.0 mi Calm Calm - N/A   Clear
7:58 AM 74.5 °F 48.9 °F 40% 29.95 in 9.0 mi Calm Calm - N/A   Clear
8:58 AM 80.4 °F 48.6 °F 33% 29.94 in 9.0 mi Calm Calm - N/A   Clear
9:58 AM 85.6 °F 46.4 °F 25% 29.93 in 8.0 mi SSE 4.6 mph - N/A   Clear
10:58 AM 89.6 °F 45.5 °F 22% 29.91 in 8.0 mi South 8.1 mph - N/A   Clear
11:58 AM 93.0 °F 44.8 °F 19% 29.89 in 8.0 mi SW 4.6 mph - N/A   Clear
12:49 PM 95.0 °F 44.6 °F 18% 29.88 in 8.0 mi WSW 17.3 mph 21.9 mph N/A   Clear
12:58 PM 94.1 °F 44.8 °F 18% 29.88 in 7.0 mi SW 16.1 mph 24.2 mph N/A   Clear
1:58 PM 96.8 °F 43.3 °F 16% 29.85 in 9.0 mi SW 13.8 mph 20.7 mph N/A   Clear
2:58 PM 96.8 °F 42.6 °F 15% 29.83 in 8.0 mi WSW 15.0 mph 21.9 mph N/A   Clear
3:58 PM 97.2 °F 42.8 °F 15% 29.80 in 8.0 mi SW 16.1 mph 23.0 mph N/A   Clear
4:58 PM 97.2 °F 30.9 °F 10% 29.78 in 8.0 mi WSW 21.9 mph 28.8 mph N/A   Clear
5:15 PM 95.0 °F 42.8 °F 16% 29.78 in 7.0 mi SW 16.1 mph 27.6 mph N/A   Clear
5:22 PM 95.0 °F 41.0 °F 15% 29.78 in 7.0 mi WSW 17.3 mph 27.6 mph N/A   Clear
5:33 PM 95.0 °F 44.6 °F 18% 29.78 in 7.0 mi West 16.1 mph 27.6 mph N/A   Clear
5:58 PM 92.8 °F 29.3 °F 10% 29.78 in 8.0 mi West 21.9 mph 27.6 mph N/A   Clear
6:58 PM 87.4 °F 42.4 °F 21% 29.79 in 8.0 mi SW 16.1 mph - N/A   Clear
7:58 PM 82.8 °F 40.6 °F 22% 29.79 in 9.0 mi SSW 11.5 mph 19.6 mph N/A   Clear
8:58 PM 78.6 °F 41.7 °F 27% 29.80 in 10.0 mi SSW 13.8 mph - N/A   Clear
9:58 PM 77.0 °F 28.9 °F 17% 29.80 in 10.0 mi WSW 15.0 mph - N/A   Clear
10:58 PM 73.2 °F 39.6 °F 30% 29.82 in 10.0 mi WSW 20.7 mph 25.3 mph N/A   Clear
11:58 PM 70.5 °F 44.4 °F 39% 29.83 in 10.0 mi West 21.9 mph - N/A   Clear